Location: Ar Ranvel
(48.3000°N, 4.8833°W)
Time: 21:47:46
(UTC+00:00)

Meteor 2-10 Rocket - Pass Details

Date: 31 October 2021
Orbit: 733 x 885 km, 81.2° (Epoch: 30 November)

Event Time Altitude Azimuth Distance (km) Brightness Sun altitude
Rises 03:13:38 0° 1° (N) 3,186 7.0 -38.1°
Reaches altitude 10° 03:17:04 10° 25° (NNE) 2,249 6.4 -37.6°
Maximum altitude 03:19:51 15° 59° (ENE) 1,934 6.2 -37.2°
Drops below altitude 10° 03:22:38 10° 93° (E) 2,242 6.5 -36.8°
Sets 03:26:01 0° 117° (ESE) 3,169 7.2 -36.2°
